Theta_e
270 271 270 270 269 268 268 268 267 267 267 267 267 268 268 267 266 266 266 265 265 265 264 264 264 264 264 264 264 264 264 264 264 264 264 264 264 264 264 264 264 264 265 265 265 265 265 266 266 266 266 266 267 267 267 267 268 268 268 268 269 269 270 271 272 272 273 274 275 276 276 277 277 277 278 278 278 278 278 278 278 278 278 278 279
270 270 270 269 269 268 268 267 267 267 267 267 267 267 267 267 266 266 265 265 264 264 264 264 264 264 264 263 263 263 263 263 263 263 263 264 264 264 264 264 264 264 264 264 264 265 265 265 265 265 266 266 266 266 266 266 266 267 267 267 268 269 269 270 271 272 272 273 273 274 275 275 276 276 277 277 277 277 277 277 277 277 278 278 278
270 270 270 269 269 268 267 267 267 267 267 266 266 266 266 266 266 265 265 264 264 264 264 263 263 263 263 263 263 263 263 263 263 263 263 263 263 263 263 263 263 264 264 264 264 264 264 264 264 265 265 265 265 265 265 265 266 266 266 267 267 268 268 269 270 270 271 271 272 272 273 274 275 276 276 277 277 277 276 276 277 277 277 277 278
269 269 269 269 268 268 267 267 267 267 266 266 266 266 266 266 265 265 264 264 264 263 263 263 263 263 263 263 263 263 263 263 263 262 262 262 262 262 262 263 263 263 263 263 263 263 264 264 264 264 264 264 264 264 265 265 265 265 266 266 267 267 268 268 269 269 270 270 271 271 272 272 273 274 275 275 276 276 276 276 276 276 276 277 277
269 269 269 269 268 267 267 267 266 266 266 266 266 265 265 265 265 264 264 263 263 263 263 262 262 262 262 262 262 262 262 262 262 262 262 262 262 262 262 262 262 262 262 262 263 263 263 263 263 263 263 264 264 264 264 264 265 265 266 266 266 267 267 268 268 269 269 269 270 270 271 271 272 272 273 274 274 274 275 275 275 275 276 276 276
269 268 268 268 268 267 267 266 266 266 266 265 265 265 265 264 264 264 263 263 263 262 262 262 262 262 262 262 262 262 262 262 261 261 261 261 261 261 261 262 262 262 262 262 262 262 262 262 263 263 263 263 263 264 264 264 264 265 265 266 266 266 267 267 267 268 268 269 269 269 270 270 271 272 272 273 273 274 274 274 274 275 275 275 276
268 268 268 267 267 267 266 266 266 265 265 265 265 264 264 264 264 263 263 262 262 262 262 261 261 261 261 261 261 261 261 261 261 261 261 261 261 261 261 261 261 261 261 261 261 262 262 262 262 262 263 263 263 263 264 264 264 265 265 265 266 266 266 267 267 267 268 268 268 269 269 270 270 271 272 272 273 273 274 274 274 274 275 275 275
268 267 267 267 267 266 266 266 265 265 265 264 264 264 264 263 263 263 262 262 261 261 261 261 261 260 260 260 260 260 260 260 260 260 260 260 260 260 260 260 260 261 261 261 261 262 262 262 262 262 263 263 263 263 264 264 264 265 265 265 266 266 266 267 267 268 268 268 268 268 269 269 270 270 271 271 272 273 273 274 274 274 274 275 275
268 267 267 266 266 266 265 265 265 265 264 264 264 263 263 263 262 262 262 261 261 261 260 260 260 260 260 260 260 259 259 259 259 259 260 260 260 261 261 261 261 262 262 262 262 262 262 263 263 263 263 264 264 264 264 264 265 265 265 265 266 266 267 267 268 268 268 268 268 269 269 269 270 270 271 271 272 272 273 274 274 274 274 275 275
267 267 266 266 265 265 265 265 265 264 264 264 263 263 262 262 262 261 261 261 261 260 260 259 259 259 259 259 259 259 259 259 259 259 260 261 262 262 262 262 262 263 263 263 263 263 263 264 264 264 264 264 265 265 265 265 266 266 266 266 266 267 267 267 268 268 268 269 269 269 269 269 270 270 271 271 272 272 273 274 274 274 274 274 274
267 266 266 265 265 265 265 264 264 264 264 263 263 262 262 262 261 261 261 260 260 260 259 259 259 259 259 259 258 258 258 258 259 260 261 262 262 263 263 263 263 263 263 263 264 264 264 264 264 265 265 265 265 265 266 266 266 267 267 268 268 268 268 268 268 268 269 269 269 269 269 269 270 270 270 271 271 271 272 273 273 273 273 274 274
266 266 266 265 265 265 264 264 264 263 263 263 262 262 262 261 261 260 260 260 260 259 259 258 258 258 258 258 258 258 258 258 259 260 261 262 262 263 263 263 263 263 263 263 264 264 264 264 264 264 264 265 265 265 266 266 266 267 267 268 268 269 269 269 269 269 269 269 270 270 270 270 270 270 270 270 271 271 271 272 273 273 274 274 275
266 266 265 265 265 264 264 264 263 263 263 262 262 262 261 261 261 260 260 259 259 258 258 258 258 258 258 258 258 258 258 258 259 260 261 262 262 263 263 263 263 263 263 263 263 263 263 263 264 264 264 265 265 266 266 266 266 267 267 267 268 268 269 269 270 270 270 270 270 270 270 270 270 270 270 270 271 271 271 272 273 273 274 274 275
266 265 265 264 264 264 264 263 263 263 263 262 262 262 261 261 260 260 259 259 258 258 258 258 258 258 258 258 258 258 258 258 259 260 261 262 262 263 263 262 262 262 262 262 262 263 263 263 264 264 264 265 265 265 266 266 266 267 267 267 268 268 268 269 269 269 270 270 270 270 270 271 270 270 271 271 271 271 271 272 272 273 273 273 274
265 265 264 264 264 264 263 263 263 262 262 262 261 261 261 260 259 259 259 258 258 258 257 257 257 257 257 257 257 257 257 258 259 260 261 261 262 263 262 262 261 261 262 262 262 262 263 263 263 264 264 265 265 265 266 266 267 267 267 267 268 268 268 268 269 269 269 269 269 270 270 270 270 270 271 271 271 271 271 271 272 272 272 272 273
265 264 264 264 264 263 263 263 262 262 262 261 261 260 260 259 259 259 258 258 258 257 257 257 257 257 257 257 257 257 257 257 259 260 260 261 262 262 261 261 261 261 262 262 262 262 263 263 264 264 264 265 265 266 266 267 267 267 268 268 268 268 269 269 269 269 270 270 270 270 270 270 270 270 270 270 271 271 271 271 271 272 272 272 273
264 264 264 263 263 263 263 262 262 261 261 261 260 260 259 259 259 258 258 257 257 257 257 257 257 257 257 257 257 257 257 257 258 259 260 261 262 261 261 261 261 261 261 262 262 262 263 263 264 264 265 265 265 266 266 267 268 268 268 268 269 269 269 270 270 270 270 271 271 271 271 271 271 271 271 271 271 271 271 271 271 271 272 272 273
264 263 263 263 263 263 262 262 261 261 260 260 260 259 259 259 258 258 258 257 257 257 256 256 256 256 256 257 257 257 257 257 258 259 260 261 261 261 261 261 261 261 262 262 262 263 263 263 264 264 264 265 265 266 267 267 268 268 269 269 269 270 270 270 270 270 270 271 271 271 272 272 272 272 273 273 272 272 272 271 271 271 272 272 272
263 263 263 263 262 262 262 261 261 260 260 260 259 259 259 258 258 258 257 257 256 256 256 256 256 256 256 256 256 256 256 257 257 258 260 261 261 261 261 261 261 262 262 262 263 263 263 263 263 264 264 265 265 266 267 267 268 268 269 269 269 270 270 270 270 270 270 270 271 271 271 272 272 272 272 272 272 272 272 272 272 272 272 272 273
263 263 262 262 262 262 261 261 260 260 260 260 259 259 259 258 258 257 257 256 256 256 256 256 255 256 256 256 256 256 256 256 256 258 259 260 261 261 261 262 262 262 262 263 263 263 263 263 263 263 264 265 265 266 267 267 268 268 269 269 269 269 269 269 269 270 270 271 271 271 271 271 271 271 271 271 271 271 271 272 272 272 272 272 273
263 262 262 262 261 261 261 260 260 260 260 259 259 259 258 258 257 257 256 256 256 255 255 255 255 255 255 255 255 255 256 256 256 257 259 260 261 261 262 262 262 262 263 263 262 262 262 262 262 263 263 264 265 266 266 267 268 268 268 268 268 269 269 269 269 269 270 270 271 271 272 271 271 271 270 270 270 270 271 271 272 272 273 273 273
262 262 261 261 261 260 260 260 260 259 259 259 258 258 258 257 257 257 256 256 256 255 255 255 255 255 255 255 255 256 256 256 257 257 258 260 261 261 262 262 262 262 262 262 261 261 261 261 261 262 263 264 265 265 266 267 267 267 267 267 268 268 268 268 268 268 269 270 271 271 271 271 271 270 270 270 270 270 271 272 272 272 273 273 273
262 261 261 261 260 260 259 259 259 259 258 258 258 257 257 257 257 256 256 256 255 255 255 255 255 255 255 255 256 256 256 257 257 257 258 259 260 261 261 262 262 262 261 260 260 260 260 260 261 262 263 264 265 265 265 266 265 265 266 267 267 267 266 266 267 267 269 270 271 271 271 271 271 271 270 271 271 271 271 272 272 272 273 273 273
261 261 260 260 259 259 259 258 258 258 258 257 257 257 257 257 256 256 256 256 255 255 255 255 255 255 255 256 256 256 256 257 257 258 258 259 259 260 261 261 262 261 260 260 259 259 260 261 261 262 263 264 264 264 264 264 264 264 265 265 265 265 265 265 266 267 268 269 271 272 272 271 271 271 271 271 271 272 272 272 272 273 273 273 274
261 260 260 259 259 259 258 258 258 257 257 257 257 257 257 256 256 256 256 256 255 255 255 255 255 255 255 256 256 256 256 257 257 258 258 258 258 259 260 260 260 260 259 259 259 260 260 261 262 263 263 263 262 262 262 262 263 263 264 264 264 264 263 264 265 266 267 269 270 271 272 272 271 271 272 272 272 272 272 273 273 273 273 274 274
260 260 259 259 258 258 258 257 257 257 257 257 257 257 257 257 256 256 256 256 256 256 255 255 255 255 255 256 256 256 256 257 257 257 257 257 258 258 259 259 259 259 259 259 259 260 260 261 261 261 261 261 261 261 261 262 262 262 262 262 262 262 262 262 264 265 267 268 269 270 272 272 272 272 272 272 272 272 272 273 273 273 273 274 274
260 259 259 258 258 257 257 257 257 257 257 257 257 257 257 257 256 256 256 256 256 256 255 255 255 255 255 255 256 256 256 256 257 257 257 257 257 258 258 258 258 258 259 259 259 260 260 261 261 261 260 260 260 260 261 261 260 260 260 260 260 261 261 262 263 265 266 267 267 268 270 271 272 272 272 272 272 272 272 273 273 273 273 274 273
259 258 258 258 257 257 257 257 257 257 257 257 257 257 257 257 257 257 256 256 256 256 255 255 255 255 255 255 255 255 256 256 257 257 257 257 257 258 258 258 258 259 259 259 260 260 260 260 260 259 259 259 259 260 259 259 259 259 259 259 259 260 261 261 263 263 264 265 265 265 267 270 272 272 272 272 272 272 272 273 273 273 273 273 273
258 258 258 257 257 257 257 257 257 257 257 257 257 257 257 257 257 256 256 256 256 256 256 256 255 255 255 255 255 256 256 257 257 257 258 258 258 258 259 259 259 259 259 260 260 260 260 259 259 258 258 258 258 258 258 258 258 258 258 258 259 259 260 261 262 262 262 263 263 264 266 268 270 272 272 272 272 272 272 272 272 273 273 273 273
258 257 257 257 257 256 256 257 257 257 256 256 256 256 256 256 257 257 257 257 257 257 257 257 257 257 256 256 256 257 257 257 258 258 258 259 259 259 259 259 259 259 260 260 260 259 259 258 258 258 258 257 257 257 257 257 257 258 258 258 258 259 259 260 260 261 261 261 262 263 264 266 269 271 272 272 271 271 272 272 272 272 272 272 272
257 257 257 256 256 256 256 256 256 256 256 256 256 256 256 256 256 257 258 258 258 258 258 258 258 258 258 258 258 258 258 258 258 258 258 258 258 258 258 259 259 259 260 260 259 258 257 257 257 257 257 257 257 257 257 257 257 257 257 257 257 258 258 259 259 260 260 261 261 262 263 265 267 269 271 272 272 272 272 272 272 272 272 272 272
257 257 256 256 256 256 256 256 256 256 255 255 255 255 255 255 256 256 256 257 257 258 258 258 258 258 258 258 258 257 257 257 257 257 257 257 257 257 258 258 258 259 259 259 257 256 256 256 256 256 256 256 256 256 256 256 256 256 256 257 257 257 257 258 258 259 259 260 260 261 262 264 265 266 269 271 272 272 272 272 272 272 272 272 272
257 257 256 256 256 256 256 256 255 255 255 255 255 255 255 255 255 255 255 255 256 256 257 257 257 257 257 257 257 257 256 256 256 256 256 256 256 257 257 258 258 258 258 257 256 255 255 255 255 255 255 255 255 255 255 256 256 256 256 256 256 256 257 257 258 258 259 259 259 259 261 262 263 264 266 269 271 272 272 272 272 272 272 272 272
257 257 256 256 256 256 256 255 255 255 255 255 255 255 255 255 255 255 255 254 254 254 255 255 255 255 255 255 255 255 255 255 255 255 255 255 256 257 257 257 257 256 256 255 254 254 254 254 254 254 254 254 254 255 255 255 255 255 255 255 256 256 256 256 257 258 258 258 258 258 259 261 262 263 264 266 269 271 272 272 272 272 272 272 272
257 256 256 256 256 256 255 255 255 255 255 255 255 255 255 255 255 254 254 254 254 254 254 254 254 254 254 254 254 254 254 254 254 254 254 255 256 256 256 255 254 254 254 253 253 253 253 253 253 253 253 253 254 254 254 254 254 254 255 255 255 255 255 256 257 257 257 257 257 257 258 259 260 262 263 264 266 269 271 272 272 272 272 272 272
257 256 256 256 256 255 255 255 255 255 255 255 255 255 255 254 254 254 254 254 254 254 254 254 253 253 253 253 253 253 253 253 253 254 254 254 255 255 253 253 252 252 252 252 253 253 253 253 252 252 253 253 253 253 253 254 254 254 254 254 254 255 255 255 256 257 256 256 256 256 257 258 259 260 261 263 265 267 269 270 272 273 272 272 272
256 256 256 256 256 255 255 255 255 255 255 255 255 255 254 254 254 254 254 254 254 254 253 253 253 253 253 253 253 252 253 253 253 253 253 253 253 252 251 251 251 251 252 252 252 252 252 252 252 252 252 252 252 252 253 253 253 253 253 253 254 254 254 255 255 256 255 255 255 256 256 257 258 258 260 261 263 265 266 267 270 272 273 272 272
256 256 256 256 256 255 255 255 255 255 255 255 255 254 254 254 254 254 254 254 254 253 253 253 253 253 252 252 252 252 252 252 252 252 251 251 251 251 251 251 251 251 251 251 251 252 251 251 251 251 251 252 252 252 252 252 253 253 253 253 253 253 254 254 254 254 255 255 255 255 255 256 256 257 258 260 262 263 264 265 267 270 272 273 273
256 256 256 256 255 255 255 255 255 255 255 255 254 254 254 254 254 254 254 254 253 253 253 253 253 252 252 252 252 252 252 251 251 251 251 251 251 250 250 250 250 250 250 251 251 251 251 251 251 251 251 251 251 251 252 252 252 252 252 252 253 253 253 253 254 254 254 254 254 254 254 255 255 256 257 259 261 262 263 264 265 267 270 272 273
256 256 255 255 255 255 255 255 255 255 255 254 254 254 254 254 254 254 254 253 253 253 253 252 252 252 252 252 252 252 252 251 251 251 251 251 250 250 250 250 250 250 250 250 250 250 250 250 250 250 250 251 251 251 251 251 252 252 252 252 252 252 253 253 253 253 254 254 253 254 254 254 255 256 257 258 260 261 262 263 264 265 267 270 272
256 255 255 255 255 255 255 255 255 254 254 254 254 254 254 254 254 254 254 253 253 253 253 252 252 252 252 252 252 252 252 252 252 251 251 250 250 250 250 250 250 250 250 250 250 250 250 250 250 250 250 250 250 251 251 251 251 251 251 251 252 252 252 252 253 253 253 253 253 253 253 254 254 255 256 257 259 260 261 262 264 265 266 268 270
256 255 255 255 255 255 254 254 254 254 254 254 254 254 254 254 254 254 253 253 253 253 252 252 252 252 252 252 252 252 252 252 251 251 250 250 250 250 249 249 249 249 249 249 249 249 249 249 249 249 249 250 250 250 250 251 251 251 251 251 251 251 252 252 252 253 253 252 252 253 253 253 254 254 255 257 258 258 260 261 263 264 265 266 268
256 255 255 255 254 254 254 254 254 254 254 254 254 254 254 254 253 253 253 253 253 252 252 252 252 252 252 251 251 251 251 251 251 250 250 250 250 249 249 249 249 249 249 249 249 249 249 249 249 249 249 249 249 250 250 250 250 250 250 251 251 251 252 252 252 252 252 252 252 252 252 253 253 254 254 256 257 257 259 261 262 263 264 265 267
255 255 255 254 254 254 254 254 254 254 254 254 254 254 254 253 253 253 253 253 252 252 252 252 252 252 251 251 251 251 251 250 250 250 250 250 250 249 249 249 249 249 249 249 249 249 248 248 248 248 248 248 249 249 250 250 250 250 250 250 251 251 251 251 251 251 251 251 251 252 252 252 253 253 254 255 256 257 258 259 261 262 263 264 266
255 255 254 254 254 254 254 254 254 254 254 254 254 253 253 253 253 253 253 252 252 252 252 252 252 251 251 251 251 251 251 250 250 250 250 250 250 249 249 249 249 249 249 249 248 248 248 248 248 248 248 248 248 249 249 249 249 250 250 250 250 251 251 251 251 250 251 251 251 251 251 252 252 253 253 254 255 256 257 258 260 261 262 263 264
255 254 254 254 254 254 254 254 254 254 254 254 253 253 253 253 252 252 252 252 252 252 252 252 251 251 251 251 251 251 250 250 250 250 250 250 249 249 249 249 249 249 248 248 248 248 248 247 247 247 247 248 248 248 248 249 249 249 250 250 250 251 251 251 250 250 250 251 251 251 251 251 252 252 253 253 254 255 257 258 259 260 261 262 264
254 254 254 254 254 254 254 254 254 254 254 253 253 253 253 252 252 252 252 252 252 252 252 251 251 251 251 251 251 250 250 250 250 250 250 250 249 249 249 249 248 248 248 248 248 248 248 247 247 247 247 247 247 248 248 248 249 249 249 249 250 250 250 250 250 250 250 250 250 250 251 251 251 252 252 253 254 255 256 257 258 259 260 261 263
254 254 253 253 254 254 254 254 254 253 253 253 253 253 252 252 252 252 252 252 252 252 251 251 251 251 251 251 250 250 250 250 250 250 250 249 249 249 249 249 248 248 248 248 248 248 247 247 247 247 247 247 247 247 247 248 248 249 249 249 249 250 250 250 250 250 250 250 250 250 251 251 251 251 252 253 253 254 255 257 257 258 259 260 262
253 253 253 253 254 254 254 254 253 253 253 253 252 252 252 252 252 252 252 252 252 251 251 251 251 251 251 251 250 250 250 250 250 250 249 249 249 249 249 248 248 248 248 248 248 247 247 247 247 247 246 246 247 247 247 248 248 248 248 249 249 249 249 249 249 250 250 250 250 250 251 251 251 251 252 252 253 254 255 256 257 258 259 260 261
253 253 253 253 253 253 253 253 253 253 253 252 252 252 252 252 252 252 251 251 251 251 251 251 251 251 251 250 250 250 250 250 250 250 249 249 249 249 248 248 248 248 248 248 247 247 247 247 247 246 246 246 246 246 247 247 248 248 248 248 248 248 249 249 249 249 250 250 250 250 251 251 251 251 252 252 253 254 255 256 257 257 258 259 261
253 253 253 253 253 253 253 253 253 252 252 252 252 252 252 252 251 251 251 251 251 251 251 251 251 251 251 250 250 250 250 250 250 249 249 249 249 249 248 248 248 248 248 247 247 247 247 247 246 246 246 246 246 246 246 247 247 247 248 248 248 248 248 249 249 249 249 250 250 250 251 251 251 251 252 252 253 254 255 255 256 257 258 259 260
Wind_Speed
17 15 15 15 15 16 17 17 17 17 18 17 18 18 17 17 17 17 17 18 19 20 20 20 20 21 21 21 22 22 22 22 22 22 22 21 21 21 21 21 22 23 23 23 22 22 23 24 24 23 22 22 24 23 23 23 23 23 23 23 24 23 23 21 15 16 21 24 26 28 26 26 27 27 28 29 29 29 28 28 28 28 28 29 30
17 16 16 15 16 17 17 18 17 17 18 18 18 18 17 17 17 17 19 19 20 20 20 21 21 21 22 22 22 22 22 22 21 21 21 22 22 22 22 23 23 24 23 24 24 23 23 24 24 24 23 24 25 24 24 24 23 24 24 22 23 23 21 22 20 17 18 21 24 27 26 25 27 28 26 27 27 26 26 27 26 26 28 29 30
17 17 16 15 16 17 18 18 18 18 18 18 17 17 17 18 18 18 18 19 20 20 20 21 21 22 22 22 22 22 22 22 21 21 22 23 24 24 24 24 24 24 24 25 25 24 24 25 25 24 23 24 25 24 23 23 22 23 23 22 23 23 22 22 23 21 21 22 23 25 25 24 26 27 25 25 26 25 26 27 27 28 28 29 30
17 17 17 16 17 17 18 18 18 18 18 17 17 17 18 18 18 18 18 19 20 20 20 21 22 22 22 22 22 22 22 22 22 22 23 24 25 25 25 25 25 25 26 26 26 25 25 25 25 25 24 24 25 23 22 22 21 21 22 21 21 22 22 21 23 23 23 23 24 25 25 25 27 27 26 26 26 27 28 28 28 29 29 30 31
17 17 17 17 17 17 18 18 18 18 17 17 17 18 18 18 18 18 19 20 20 21 21 21 21 21 22 22 23 23 23 23 23 24 25 25 26 26 26 26 26 27 27 27 26 26 26 26 26 24 24 24 24 23 22 22 21 21 21 21 20 20 20 20 21 22 23 24 24 25 24 24 27 28 28 28 29 29 29 29 28 28 29 30 31
17 17 17 18 18 18 19 18 18 18 17 18 18 18 18 18 18 18 19 20 21 22 22 21 21 22 23 23 24 24 24 24 25 26 26 26 26 27 27 28 29 28 28 28 27 27 27 27 26 25 25 26 26 26 25 25 25 25 25 25 24 23 23 22 22 22 23 25 25 24 23 23 25 26 25 25 27 28 27 28 29 29 30 30 31
17 17 18 18 19 19 19 18 18 18 18 18 18 19 18 18 18 19 20 21 22 22 22 22 23 23 24 24 25 25 26 26 26 26 26 27 28 29 30 30 30 29 29 29 28 28 28 28 28 28 28 29 30 30 29 29 29 30 30 29 28 27 26 25 24 23 23 24 24 24 23 23 23 24 24 23 26 27 26 25 24 25 26 28 29
17 18 18 18 18 19 19 19 19 19 19 19 19 19 19 19 19 20 21 22 21 21 22 24 25 25 25 26 26 26 27 27 26 27 28 29 30 31 31 31 31 31 31 31 31 30 31 31 31 32 32 32 33 33 33 33 32 33 33 31 29 28 27 25 24 24 23 23 23 23 23 22 22 24 25 24 25 26 25 23 23 23 23 24 27
17 17 17 18 19 19 20 20 20 20 19 19 19 19 19 20 21 21 22 22 22 23 25 26 27 27 27 27 27 27 28 28 28 28 29 30 31 31 32 31 32 33 33 34 34 33 33 33 33 33 33 33 34 34 34 35 34 34 33 31 30 29 27 26 24 23 22 21 22 22 21 21 21 21 21 21 22 24 24 23 23 23 21 22 26
16 17 18 19 20 20 20 20 20 20 20 19 19 20 21 21 22 22 22 23 24 26 27 27 27 28 28 29 29 29 29 30 30 29 28 29 31 32 31 31 30 30 31 32 32 31 31 31 31 31 31 32 33 33 34 34 35 35 34 33 32 31 28 26 25 24 22 21 21 21 19 19 20 20 20 22 23 24 24 22 22 21 20 20 24
17 18 20 21 20 20 20 21 21 20 20 20 20 21 22 22 22 23 24 25 26 27 27 28 28 28 29 30 31 31 31 31 30 29 29 31 32 32 31 30 29 29 29 29 29 28 28 28 28 29 29 31 32 33 34 34 35 35 36 35 35 34 32 29 27 26 25 23 23 22 19 19 22 23 23 24 24 25 27 25 23 21 18 14 15
19 19 20 20 20 20 20 21 21 21 21 21 21 22 22 23 24 25 25 26 27 27 28 28 29 29 30 30 31 31 32 32 29 29 31 32 33 32 31 30 29 28 29 29 29 30 29 30 31 31 31 31 32 34 34 35 35 35 35 36 36 37 37 35 32 30 28 25 24 24 23 24 26 27 27 28 27 27 29 29 26 23 20 16 14
19 20 20 20 21 21 21 21 21 21 22 22 23 23 24 24 25 26 27 27 28 28 29 29 29 30 30 30 32 32 33 33 31 30 32 33 33 33 34 32 30 29 29 29 30 30 29 30 31 31 31 31 32 33 34 35 36 36 36 37 37 38 39 39 38 36 34 31 27 26 28 28 29 31 32 32 30 29 29 29 27 24 21 19 19
20 20 20 21 21 21 21 22 22 22 22 23 23 24 24 25 27 27 28 27 28 28 29 29 30 30 30 31 32 33 34 34 31 30 32 34 33 34 35 33 29 28 29 28 27 27 27 28 29 30 31 31 32 33 34 35 35 35 36 37 38 40 39 39 40 39 39 37 34 32 34 33 33 35 35 34 33 33 31 29 28 27 28 27 27
20 21 21 22 22 22 21 22 22 22 23 23 24 25 26 27 28 27 27 27 27 28 29 30 31 31 31 32 33 34 35 33 31 31 33 34 33 33 34 32 29 28 28 27 26 26 27 28 30 31 33 33 33 33 34 34 34 35 35 36 37 38 38 39 40 40 41 41 41 41 41 41 41 41 40 38 38 39 38 35 33 32 33 34 33
21 21 22 22 22 22 21 22 22 23 24 24 25 26 27 28 27 26 26 27 28 29 30 30 30 31 32 32 32 34 35 33 31 32 33 33 33 34 34 32 29 28 28 27 27 28 28 29 30 31 33 34 34 34 35 36 35 35 36 36 37 37 38 40 42 43 44 44 45 46 46 47 47 46 45 42 41 43 42 39 38 36 31 26 26
21 22 23 23 23 23 23 23 23 24 25 25 26 27 27 27 27 26 27 28 29 29 30 30 30 31 32 32 32 34 35 33 31 32 33 32 33 34 33 30 28 27 28 28 28 27 28 28 29 30 31 33 34 35 36 37 36 36 34 34 35 35 36 38 38 39 41 42 44 45 46 48 48 46 45 44 43 44 39 33 35 35 26 16 14
22 23 23 23 24 24 24 24 25 26 26 26 27 27 26 27 27 27 27 28 29 30 31 31 31 31 32 32 31 32 34 33 31 32 33 31 31 33 31 28 26 27 28 27 26 26 27 27 27 29 31 33 35 36 37 37 37 36 33 32 31 31 31 32 32 33 36 38 41 43 44 46 46 45 45 45 43 43 37 33 36 34 23 15 16
23 23 24 24 24 25 25 25 26 27 27 27 26 27 27 28 29 29 28 28 29 30 30 30 31 31 32 32 31 30 33 34 33 33 32 30 30 32 31 27 25 25 25 24 25 26 27 27 26 28 30 33 34 35 36 36 34 32 31 28 25 25 28 30 31 32 34 35 38 41 42 45 46 44 44 42 40 39 38 37 39 35 26 24 25
23 24 24 24 25 25 25 26 26 26 27 27 27 27 28 30 30 29 29 28 29 30 31 30 31 32 32 33 32 32 33 35 34 32 31 30 30 32 30 25 22 22 23 23 24 25 24 24 24 26 29 32 33 34 35 35 33 32 29 25 23 26 30 32 33 33 33 33 35 39 41 43 44 42 41 40 39 39 38 37 38 37 33 31 30
24 24 24 25 25 25 25 26 26 27 27 28 28 29 30 31 31 30 29 29 29 30 31 31 31 33 34 33 33 33 33 33 32 30 30 30 30 30 29 25 22 23 24 22 21 20 22 23 25 26 28 31 33 35 36 37 37 35 31 27 28 31 32 31 31 31 31 32 33 35 37 37 37 37 38 38 37 36 36 35 36 37 36 34 32
24 24 25 26 26 26 26 27 27 28 29 29 30 31 32 31 31 30 30 29 29 30 32 32 31 32 34 33 33 32 31 30 29 28 28 29 29 30 29 27 26 25 21 17 18 20 23 25 26 26 27 30 33 35 35 36 35 33 31 32 33 34 32 30 29 28 28 29 30 31 31 31 32 32 34 35 35 34 35 36 35 35 35 37 36
24 24 25 26 26 26 27 28 28 29 30 30 30 31 32 31 30 30 29 28 29 30 30 30 29 30 31 31 30 30 28 27 27 25 25 27 29 30 30 29 28 25 20 19 22 24 25 27 27 28 29 31 33 33 33 34 33 32 32 33 34 34 33 30 28 26 26 28 29 28 28 28 29 30 31 33 33 33 34 36 35 34 34 37 38
24 25 25 26 26 27 28 29 29 30 30 30 30 31 32 31 30 30 28 27 27 28 28 27 26 27 28 28 28 28 27 26 25 24 23 26 29 31 31 29 28 26 24 25 27 27 28 30 30 30 31 32 32 33 34 35 33 32 32 33 32 31 29 27 26 25 25 26 27 26 26 27 29 31 32 32 32 32 33 34 35 34 34 35 36
24 25 26 27 27 28 29 29 30 30 30 30 30 31 31 30 29 29 28 26 26 26 26 25 25 26 26 27 27 27 26 25 25 24 23 26 29 30 30 29 28 27 27 28 29 30 30 31 31 31 31 31 32 34 34 33 31 30 30 30 29 27 26 25 25 24 23 24 24 24 25 28 31 33 33 32 31 31 31 31 32 32 32 33 34
24 25 27 28 28 28 29 30 30 30 29 29 29 29 30 29 29 28 27 25 25 25 25 24 24 25 26 26 27 27 26 25 25 24 24 27 29 29 29 29 28 27 27 28 29 30 30 30 30 30 29 29 31 32 31 29 28 28 28 27 26 26 26 25 23 22 22 21 22 24 25 29 32 32 31 31 30 30 29 28 28 29 29 29 27
25 27 27 28 27 27 28 29 29 28 28 27 27 27 28 28 28 27 27 25 24 24 24 24 24 24 25 26 27 26 26 25 24 24 25 27 30 30 30 29 28 27 28 28 28 29 29 29 27 26 27 28 28 28 27 26 26 26 25 25 24 24 24 23 22 21 21 20 20 24 26 28 29 28 28 28 28 28 28 27 26 25 25 24 20
26 27 28 27 27 27 27 28 28 28 27 26 26 26 26 27 28 28 28 27 26 25 25 25 26 27 27 26 26 25 25 25 24 25 27 28 29 29 27 26 26 27 27 27 28 29 28 25 24 24 25 25 24 23 23 23 23 23 24 24 24 23 22 21 20 19 19 19 20 23 25 23 22 25 26 26 26 27 27 27 26 25 23 21 16
26 27 27 27 27 27 27 27 27 26 26 26 26 27 27 28 29 31 32 31 30 30 29 29 31 32 30 27 25 24 25 26 27 28 29 28 28 27 26 26 27 27 26 27 29 27 22 20 21 22 21 20 20 21 21 21 21 22 22 22 22 22 21 20 19 19 20 20 20 21 22 22 20 21 24 24 24 25 27 26 26 25 23 20 17
26 26 26 26 26 26 25 26 26 26 27 28 28 29 28 27 27 30 32 31 30 29 30 32 33 33 31 29 28 27 28 30 31 30 29 29 28 28 27 27 27 27 27 27 24 20 17 18 19 19 18 18 18 18 18 19 20 21 22 22 21 21 20 19 19 20 21 21 20 19 20 20 19 18 18 21 20 20 22 24 24 23 22 19 16
25 26 25 25 25 25 25 27 27 27 27 27 27 28 28 27 26 27 28 29 29 29 30 32 33 32 30 28 26 26 27 28 29 28 29 30 29 27 26 26 26 26 25 22 17 14 15 16 17 17 17 17 16 16 17 18 19 19 21 22 21 20 19 19 20 21 22 21 20 20 19 18 18 18 16 18 20 19 20 22 22 20 20 19 17
26 26 26 26 26 26 27 27 27 26 26 26 26 26 26 26 26 25 25 25 27 28 29 30 29 28 27 26 25 24 24 24 25 26 27 27 25 24 25 27 26 24 20 16 14 13 14 15 15 16 17 16 16 16 17 18 18 19 20 21 20 20 20 21 22 23 21 21 20 20 19 18 17 19 17 15 20 21 19 19 20 19 18 18 18
27 28 28 27 27 26 26 26 26 26 26 26 25 25 24 24 24 25 25 25 25 27 28 27 26 25 25 26 26 25 25 24 24 25 25 24 24 25 25 24 21 18 16 13 13 13 13 14 15 16 16 17 17 17 17 17 18 19 19 19 20 22 23 24 23 22 20 20 20 20 20 19 18 18 19 15 13 18 20 19 19 20 18 17 17
26 28 29 28 27 27 26 26 26 26 25 25 24 24 24 24 24 25 25 24 24 25 26 26 23 21 22 24 25 26 26 26 25 24 24 25 26 25 22 19 16 15 13 11 11 12 13 14 15 16 16 17 17 16 16 17 18 19 20 20 21 23 24 24 22 20 20 21 21 20 19 19 18 16 17 17 12 10 17 19 19 18 17 16 16
26 28 28 27 27 26 26 26 25 25 24 24 24 24 24 25 25 25 24 23 23 24 26 26 25 22 21 22 23 24 24 23 23 23 25 27 25 21 17 16 16 14 12 10 11 12 13 14 15 16 17 17 17 17 17 17 18 18 19 20 21 22 23 23 21 20 21 22 21 20 20 19 18 16 15 16 14 9 8 14 19 19 18 17 17
27 27 27 26 25 26 26 25 25 25 25 25 26 26 26 26 25 25 25 25 24 24 25 27 27 26 24 22 21 22 22 21 21 23 25 25 20 16 15 16 16 15 14 13 13 12 13 14 15 16 17 17 17 17 17 17 18 19 19 20 21 22 23 22 20 20 22 22 21 21 21 20 19 18 17 15 13 12 11 8 12 19 20 18 18
27 27 27 27 26 26 26 26 26 26 26 26 26 26 26 25 25 25 24 24 24 24 25 26 26 26 25 24 22 21 21 21 21 22 23 21 18 16 16 15 15 16 17 16 14 13 14 15 15 16 17 17 17 18 18 18 18 19 19 19 20 21 21 20 20 20 21 21 22 21 21 21 20 19 18 16 14 13 14 14 10 12 20 21 18
26 27 26 26 26 26 27 27 27 26 26 26 25 25 25 25 24 24 24 24 24 24 24 24 23 23 24 25 24 22 21 22 22 22 21 19 18 18 17 16 16 17 18 17 15 15 15 16 16 16 16 17 17 18 18 18 18 18 19 20 20 19 19 19 20 20 20 21 22 22 20 20 21 21 19 16 15 14 14 15 15 11 13 19 19
26 26 26 26 25 25 26 26 26 25 24 25 24 24 24 24 23 23 23 23 23 23 23 24 23 23 24 25 25 23 22 22 22 22 21 20 19 18 18 17 17 18 18 18 16 16 16 16 16 16 16 16 17 18 18 18 18 18 19 19 19 19 18 19 20 20 20 21 22 22 21 21 22 22 20 17 16 16 16 15 15 14 10 12 17
26 26 26 24 23 24 25 25 26 25 25 25 24 23 23 23 23 23 23 22 23 23 23 23 23 24 24 24 23 22 22 21 21 21 21 21 20 19 18 18 18 19 19 18 18 17 17 17 16 16 17 17 16 17 17 17 17 18 18 18 18 18 18 19 19 19 20 21 22 22 22 22 22 22 20 18 17 17 17 16 15 15 14 10 12
26 25 25 24 24 25 25 25 26 26 25 25 24 24 23 24 23 23 23 23 22 23 23 24 25 26 25 23 21 21 22 22 21 22 22 22 22 21 20 19 19 19 19 19 18 18 17 17 17 17 17 16 16 16 17 17 17 18 18 18 18 18 18 18 19 19 19 21 22 22 22 22 21 21 20 19 18 18 18 16 15 15 15 14 11
24 25 25 25 25 25 25 25 26 26 25 25 25 24 24 24 24 23 23 23 23 23 23 25 26 26 24 22 21 21 22 22 22 23 24 24 23 22 21 20 19 19 19 19 18 18 18 19 18 17 17 17 17 17 17 17 17 17 18 18 18 18 18 18 18 18 19 21 22 22 22 21 21 21 20 19 19 20 18 16 16 16 15 16 15
24 25 25 26 25 25 25 26 26 25 25 25 25 25 25 24 24 24 24 24 24 24 24 24 25 25 24 23 21 21 21 22 23 24 24 24 23 22 22 21 21 20 19 19 18 18 19 19 18 18 17 17 16 16 16 17 17 17 18 18 17 17 17 17 17 18 20 22 22 22 21 21 21 21 21 19 19 20 20 17 16 17 16 16 17
24 25 26 26 26 25 25 25 25 25 26 26 26 26 25 25 25 25 24 24 24 24 24 24 24 24 24 23 22 21 21 22 22 23 23 23 23 23 23 22 21 20 19 18 18 18 18 18 18 18 18 17 16 15 15 15 16 16 17 17 17 17 16 15 16 19 21 22 22 21 21 21 21 21 21 20 19 20 20 18 16 17 17 16 17
24 25 25 26 26 26 25 25 25 25 25 25 25 25 25 24 24 24 24 24 24 23 23 24 23 23 23 22 22 21 21 21 21 22 22 22 23 23 23 22 21 20 19 19 19 19 18 18 18 18 18 17 16 15 15 15 15 15 15 15 15 16 15 14 16 19 20 20 21 21 21 21 21 20 20 20 19 18 19 18 17 17 17 16 16
23 25 26 26 26 26 25 25 24 24 24 24 24 25 25 24 24 24 24 24 23 23 23 23 23 23 23 22 22 22 21 21 21 21 22 22 23 23 23 22 21 21 20 19 19 19 18 18 18 18 18 17 17 16 15 14 14 14 14 13 13 14 14 14 16 18 19 19 19 20 20 20 20 19 19 19 18 18 18 18 17 16 16 16 15
26 26 27 26 26 25 25 25 24 24 24 24 24 25 25 25 24 24 24 24 24 24 23 23 22 22 22 22 22 22 21 21 21 21 21 21 22 22 22 22 21 21 20 19 18 18 18 17 17 17 17 17 17 17 15 13 14 14 14 12 12 13 14 15 16 17 18 18 18 19 19 19 19 19 19 18 18 17 17 17 17 16 15 15 14
27 27 26 26 25 25 25 24 23 23 24 24 24 25 25 25 24 24 23 24 23 23 23 22 22 22 21 21 21 21 21 21 21 20 20 21 21 21 22 21 21 20 20 19 18 18 18 18 18 18 17 17 17 16 14 13 14 14 13 12 12 13 14 14 16 16 17 17 18 18 18 18 18 18 18 17 17 17 16 16 16 16 14 13 12
27 26 26 25 24 24 24 24 23 24 24 24 24 25 24 24 24 23 23 23 23 22 22 22 21 21 20 20 20 21 20 20 20 20 20 20 20 20 20 21 20 20 19 19 18 18 18 18 18 17 17 17 16 14 13 13 14 14 13 12 13 14 14 14 15 16 16 16 17 18 18 17 17 17 18 17 16 15 15 15 15 14 13 11 10
27 25 25 24 24 24 24 24 24 24 24 24 24 24 24 23 23 23 23 22 22 22 21 21 21 20 20 20 19 20 20 20 20 20 20 19 19 19 20 20 20 19 19 18 18 18 18 18 18 17 17 16 15 13 13 13 13 13 13 13 14 14 14 14 15 15 15 16 17 17 16 16 16 17 17 16 15 14 14 14 14 13 12 10 9
26 25 24 24 24 24 24 24 24 24 24 24 23 24 24 23 23 23 23 22 22 22 21 21 21 20 20 20 19 19 20 20 20 20 19 18 19 19 19 19 19 19 19 19 19 19 18 18 17 17 17 16 15 14 13 13 12 12 13 14 14 14 13 14 15 15 14 15 16 16 14 14 15 16 16 15 14 13 13 13 13 12 11 10 9
Wind_Direction
306 300 299 299 301 304 306 307 307 306 307 305 302 299 297 297 300 301 302 304 306 306 305 305 305 304 304 303 302 303 303 303 303 302 301 299 298 297 296 295 292 291 291 290 289 287 285 284 284 283 284 284 283 284 284 282 282 282 283 285 283 281 282 281 279 283 282 277 277 278 276 276 276 274 275 276 274 274 275 274 273 273 272 272 270
306 301 297 297 299 303 305 306 305 304 305 304 302 300 299 299 298 299 301 303 305 305 304 304 304 303 303 301 300 301 301 300 300 300 300 298 297 296 295 294 291 290 290 289 288 287 284 283 282 282 283 282 281 281 281 281 280 280 279 278 277 275 274 276 279 283 285 283 280 280 280 277 275 273 271 272 272 271 270 270 271 270 270 272 272
306 302 297 295 299 303 305 305 305 304 304 303 302 301 300 300 299 298 299 302 303 303 303 303 303 303 302 300 300 300 299 299 298 297 297 296 295 294 293 292 291 289 288 287 287 286 284 282 281 281 281 281 280 279 279 278 277 276 276 274 273 273 271 273 276 279 284 285 281 280 282 280 276 275 274 272 271 273 274 274 274 272 270 270 271
305 303 298 297 298 301 305 305 304 304 303 302 301 301 301 300 298 297 298 301 302 302 301 301 301 301 299 299 299 299 298 297 296 295 295 294 293 292 291 290 288 287 286 285 285 284 282 280 280 281 281 279 278 277 275 274 273 272 273 272 271 272 272 269 269 272 278 282 279 277 279 279 277 276 277 276 275 276 277 276 275 272 270 269 268
302 302 299 298 299 301 304 304 303 303 302 301 300 301 301 300 298 298 299 300 301 300 300 301 300 299 297 297 296 296 296 296 296 295 294 293 291 290 289 288 286 286 285 283 282 281 280 280 279 280 279 277 275 274 272 271 270 269 269 270 270 271 272 269 268 270 273 277 279 279 278 278 278 276 275 275 275 275 273 272 272 272 272 271 269
300 301 299 298 299 300 302 302 302 303 302 301 301 301 301 299 297 297 297 299 300 300 300 300 300 299 297 296 295 294 294 293 293 293 293 292 291 289 288 286 285 284 283 282 281 280 279 278 277 276 274 273 272 272 271 269 268 267 266 267 267 268 268 268 269 271 271 273 277 279 278 277 277 277 274 271 271 271 270 270 269 268 268 270 269
298 298 297 298 297 297 300 300 300 301 300 299 300 299 299 298 297 296 297 298 298 299 299 299 299 298 297 296 294 293 293 293 293 292 291 290 288 287 286 285 284 284 283 282 281 280 279 276 275 274 271 270 269 269 269 267 266 266 265 265 265 265 265 265 265 267 267 269 272 276 278 276 274 276 277 276 274 271 268 268 267 265 264 265 267
298 298 297 297 296 298 300 300 300 299 298 298 298 297 297 297 296 296 296 296 296 296 298 298 298 297 296 295 294 293 293 292 292 291 291 290 289 287 286 285 284 284 284 283 282 280 279 278 276 274 272 270 269 268 268 267 265 264 264 263 262 260 259 259 260 260 260 262 266 270 275 275 273 274 275 274 272 269 265 263 264 264 262 262 264
295 297 297 296 297 299 300 299 298 297 297 297 296 295 296 296 296 296 296 295 294 295 297 297 297 296 296 295 295 294 292 290 291 291 292 292 291 289 287 286 286 286 286 285 284 281 280 278 277 276 275 273 273 271 268 264 262 261 261 261 259 256 256 255 255 255 255 257 260 264 269 271 270 272 272 267 263 266 267 262 260 262 264 266 265
293 295 296 295 295 296 296 296 296 296 296 295 294 295 296 296 295 295 295 293 293 296 297 297 295 295 295 295 295 293 291 290 291 290 288 288 287 286 286 285 285 285 284 283 282 281 280 278 276 276 275 273 272 270 267 264 262 261 260 259 256 253 251 250 250 249 250 252 253 255 259 260 260 261 266 267 267 271 272 267 263 265 266 269 269
292 293 293 293 294 293 294 295 295 295 295 294 294 295 295 295 295 294 292 292 293 296 297 295 294 294 293 294 293 292 291 292 292 289 287 287 286 284 283 283 283 281 281 280 280 280 280 278 277 277 275 272 270 270 269 267 266 265 264 262 258 254 249 244 243 244 245 247 249 249 250 253 255 254 258 264 268 272 273 270 267 265 261 261 267
290 291 291 293 293 294 294 294 292 292 293 293 294 294 293 293 293 293 292 293 294 296 295 294 294 293 293 292 291 291 291 292 290 288 289 291 292 289 284 283 283 282 282 281 281 281 281 279 279 277 274 273 272 271 270 269 268 267 266 265 263 261 256 252 248 246 243 244 245 244 244 250 255 254 254 259 262 265 268 267 265 261 255 251 255
290 290 291 292 292 293 293 291 289 289 291 291 292 292 291 291 291 292 293 293 293 294 294 294 294 293 292 291 290 290 291 292 291 289 289 292 296 295 290 288 287 286 285 283 282 281 280 278 278 276 275 275 273 271 270 269 269 268 267 266 264 263 263 261 261 259 256 253 251 248 247 248 251 252 252 254 256 257 260 261 261 262 259 255 255
290 290 291 291 291 291 291 289 287 287 289 291 291 289 288 289 290 292 293 293 292 293 293 293 293 292 291 289 289 289 291 293 292 289 290 294 299 300 297 296 293 290 288 286 283 280 278 277 276 275 275 276 274 272 271 269 269 269 267 266 264 262 263 264 265 267 267 265 262 260 259 256 255 255 254 252 249 249 251 253 255 259 260 262 264
290 290 290 290 290 290 290 289 287 287 289 290 289 287 286 288 290 292 292 291 291 291 291 291 290 290 290 289 288 289 291 293 292 291 295 299 303 303 301 299 297 294 292 289 284 282 279 277 275 274 275 275 274 273 270 267 267 266 265 264 264 263 263 262 263 265 266 266 264 262 262 260 257 256 255 251 248 248 250 251 253 257 259 260 263
289 290 290 289 289 289 290 289 288 287 288 288 287 286 287 288 290 290 291 290 290 290 289 288 288 288 289 289 287 287 290 293 292 294 300 304 305 303 301 299 298 294 292 290 287 285 282 279 276 275 274 275 274 274 273 270 268 265 262 261 262 262 263 263 264 264 263 263 262 261 262 263 261 258 255 251 248 248 249 250 252 253 255 255 256
288 289 289 289 290 290 289 289 288 287 288 287 286 286 286 287 288 289 290 290 290 289 288 288 287 287 287 287 286 286 290 292 293 296 302 303 302 300 298 297 295 292 291 291 289 285 282 280 279 278 277 277 277 277 276 275 272 269 266 264 263 263 264 265 267 269 269 268 265 263 263 262 260 257 254 250 247 244 241 241 244 244 245 247 252
287 289 288 288 289 289 287 287 287 287 287 286 285 284 284 285 287 289 290 289 289 289 289 289 288 287 286 286 285 285 288 290 292 296 301 301 299 297 295 294 293 291 291 289 287 285 284 282 281 281 280 279 278 277 276 275 275 274 273 272 269 268 270 271 273 275 277 278 277 275 273 268 262 258 255 254 252 247 238 234 236 237 235 238 245
286 288 288 288 288 288 286 286 286 287 286 284 283 283 284 285 288 289 288 287 288 288 289 288 287 286 285 285 285 284 286 289 293 297 301 301 298 297 295 292 289 288 288 286 286 286 284 283 284 284 283 282 281 282 282 281 281 280 278 277 276 276 279 282 280 279 278 277 277 277 276 273 269 264 259 257 256 253 248 243 239 235 232 236 241
288 289 288 288 288 287 286 286 286 286 284 284 284 284 284 286 288 288 287 286 287 287 287 286 285 286 286 285 286 285 286 290 294 298 301 301 300 299 297 294 290 289 289 288 286 287 288 289 291 290 290 290 290 291 291 290 289 290 289 290 289 287 287 285 282 282 281 279 277 275 271 268 265 261 259 257 256 256 256 252 243 235 232 233 236
289 288 287 288 287 286 285 285 285 284 284 284 285 284 285 286 287 287 286 286 286 286 286 286 285 285 286 286 287 287 288 291 294 296 298 300 300 302 303 301 296 293 292 291 294 300 303 300 296 293 293 293 293 293 292 292 294 298 301 299 292 288 289 289 289 290 289 286 282 277 270 261 255 254 255 255 255 255 254 249 242 236 235 234 235
288 288 287 287 286 286 285 284 285 285 285 286 285 285 286 287 286 286 285 285 285 285 285 286 285 285 287 287 287 289 290 292 292 292 293 296 299 301 303 303 300 298 300 306 311 311 305 299 296 294 292 290 289 289 291 294 299 304 303 298 293 296 302 304 301 297 292 286 281 274 263 252 247 247 248 249 250 250 248 244 240 236 236 238 238
288 288 287 286 286 286 286 286 287 287 287 287 286 286 287 287 286 285 284 283 283 283 284 285 285 285 286 287 288 289 290 291 290 288 289 294 298 300 302 303 304 309 316 319 315 309 304 301 297 292 289 288 290 294 300 306 310 309 304 301 303 309 312 309 303 298 292 285 278 267 255 246 241 241 243 245 246 245 242 241 240 237 237 239 239
289 287 285 285 285 286 286 287 288 287 287 287 286 285 286 286 285 284 283 281 280 280 282 284 284 285 285 286 287 288 288 289 289 287 288 293 297 299 302 304 309 315 318 315 311 308 305 300 295 292 295 299 304 310 313 314 313 309 306 307 311 313 311 305 301 297 291 285 279 266 252 243 238 238 241 243 243 242 241 240 241 240 239 238 236
288 286 285 285 285 287 288 288 288 287 287 286 285 283 284 283 283 282 281 279 277 276 279 282 283 283 284 285 286 287 289 289 288 287 289 292 295 297 300 305 309 311 310 307 306 305 302 299 300 303 306 310 312 312 311 309 307 306 306 307 309 309 307 304 298 292 287 285 284 274 256 243 238 238 240 242 242 241 239 239 240 239 238 236 234
287 286 286 286 287 288 289 289 288 288 288 286 283 281 281 280 280 280 279 277 274 274 277 280 282 282 283 283 284 287 289 288 287 287 289 291 292 292 294 298 301 301 300 298 299 300 300 300 303 305 306 306 306 305 304 303 303 303 304 306 306 306 305 301 295 290 287 287 291 288 271 253 244 242 241 240 238 236 233 230 231 233 232 229 226
288 288 287 287 288 289 289 289 289 289 288 285 281 279 278 277 276 277 276 275 274 274 275 277 278 279 280 281 283 286 287 287 286 287 289 289 288 288 290 292 294 295 295 294 294 294 295 297 299 301 302 303 301 300 300 302 304 305 306 307 307 305 302 298 294 293 293 294 299 303 293 269 250 243 240 236 233 232 227 222 221 224 225 220 215
289 288 287 288 288 289 288 288 288 288 286 284 280 278 278 278 276 275 275 275 274 274 274 275 276 277 277 279 282 284 285 284 285 287 288 285 283 285 287 289 290 290 291 292 293 293 294 298 302 304 304 303 302 303 305 306 307 307 309 310 310 308 306 305 304 304 306 307 307 309 306 291 264 246 238 232 227 225 222 217 214 215 214 211 207
290 288 287 288 288 288 288 287 287 287 286 285 282 280 280 279 277 276 276 276 275 273 271 270 272 273 273 274 277 280 282 284 285 286 285 283 284 288 292 292 293 292 293 295 297 298 301 305 307 306 305 306 308 310 311 311 311 311 313 315 315 313 313 314 314 314 315 315 312 308 307 305 291 263 239 225 222 223 218 211 207 205 203 204 207
289 287 287 287 288 288 288 287 287 287 287 287 286 284 282 280 278 278 280 281 279 275 272 271 273 275 275 274 275 276 279 284 288 290 290 290 293 296 297 297 297 297 297 299 300 303 308 310 307 306 308 311 312 312 312 313 313 314 316 318 317 318 318 317 317 319 318 316 315 310 305 305 305 288 250 223 218 220 212 205 203 200 196 197 205
286 285 285 285 286 287 287 287 287 287 287 286 286 286 285 284 280 279 280 283 284 282 281 282 285 287 285 285 285 283 283 288 293 294 294 296 299 301 301 300 299 299 302 306 309 310 312 310 307 308 311 311 311 312 312 313 313 314 317 318 318 319 320 318 319 321 321 318 317 316 312 309 313 311 281 232 211 205 202 201 201 200 198 198 202
283 283 285 285 286 287 286 286 286 287 287 287 285 285 285 286 285 283 281 282 284 287 289 291 294 296 296 296 296 295 294 296 297 298 299 301 303 304 303 301 301 304 310 317 317 313 312 310 308 311 312 311 311 311 311 312 314 315 317 317 318 320 320 319 321 321 321 321 321 320 319 316 316 320 308 257 214 198 194 198 200 202 204 205 204
283 283 285 286 287 287 286 285 285 285 285 285 284 283 283 284 287 289 289 287 287 288 291 293 297 300 301 301 301 302 303 304 306 308 308 306 305 307 307 305 305 312 320 322 317 313 312 309 308 311 313 312 312 312 311 312 314 317 317 316 316 318 319 319 322 323 324 326 324 320 320 321 319 321 322 300 239 201 191 197 203 204 205 207 207
285 285 285 286 287 286 285 284 284 284 283 283 282 282 282 284 287 290 292 293 293 291 292 293 294 296 297 299 301 303 305 308 311 311 309 308 311 313 311 307 308 314 317 317 314 311 311 310 309 311 312 312 312 312 312 314 316 317 318 316 316 319 321 322 324 327 329 330 328 323 322 325 323 322 325 323 301 233 201 198 200 202 204 206 208
289 288 288 288 286 285 285 285 283 283 283 282 282 283 284 286 287 287 288 290 291 292 293 294 295 295 295 296 298 300 302 306 307 305 305 310 317 320 315 312 316 318 315 313 310 306 307 309 309 310 311 312 314 313 312 314 316 317 318 319 318 321 323 323 324 328 331 330 329 326 324 325 326 325 323 322 320 304 246 212 203 201 204 207 208
291 290 289 288 287 285 285 285 283 282 283 283 283 284 284 285 285 284 284 284 285 286 289 292 295 297 296 294 295 297 300 301 302 303 307 313 323 330 327 323 322 318 312 310 306 301 303 306 306 308 310 311 312 313 312 312 316 317 317 319 320 321 322 322 325 329 331 329 329 329 328 326 327 329 328 324 321 324 320 283 225 207 204 206 209
293 290 289 288 288 287 286 285 284 283 283 284 284 284 283 283 283 282 282 282 283 285 288 291 295 297 297 296 297 297 298 300 301 304 309 315 323 328 324 317 312 309 306 305 303 301 302 304 304 307 309 310 312 313 312 312 316 318 318 319 320 320 321 323 326 329 329 329 330 331 330 330 330 331 331 330 327 327 331 329 301 234 211 207 209
292 290 289 289 289 288 286 286 285 285 284 284 283 283 283 282 282 281 280 281 282 285 287 289 292 293 293 296 299 299 298 299 300 301 305 310 315 317 313 307 304 303 301 300 301 301 300 301 304 306 307 309 311 312 312 314 316 318 318 319 320 321 322 325 327 328 329 330 331 331 330 331 333 333 330 328 329 329 329 330 324 293 231 211 208
292 291 290 290 289 288 287 287 287 286 285 284 283 283 282 281 281 280 280 281 282 284 285 287 288 288 289 293 297 298 297 296 295 297 300 304 306 308 306 301 299 299 298 297 298 300 298 299 303 304 305 307 310 311 312 315 317 318 319 319 320 322 325 326 327 329 330 331 331 332 332 331 332 334 332 327 328 331 328 322 321 318 293 233 214
293 292 291 290 290 290 289 288 287 286 285 283 283 282 281 281 281 281 281 282 282 282 284 285 285 286 289 292 294 295 292 288 288 291 295 298 301 302 300 297 295 296 297 296 296 298 298 298 300 303 304 306 308 310 313 315 316 317 320 320 320 322 324 325 326 328 330 331 331 331 332 332 332 334 332 328 329 330 325 319 318 319 318 297 244
293 291 289 290 291 291 290 288 286 285 284 283 282 282 281 282 282 282 281 281 280 282 284 284 284 286 288 289 290 291 288 285 287 290 291 293 296 296 294 293 293 293 293 295 295 296 297 297 299 301 303 304 306 309 312 314 315 316 318 319 320 321 322 324 327 328 329 331 332 331 331 331 332 333 331 329 331 330 322 320 324 324 322 321 300
291 289 290 291 292 291 289 287 286 285 284 282 282 282 282 283 283 283 281 280 281 282 283 283 284 286 287 286 287 289 287 284 285 287 288 288 289 289 290 292 292 292 292 292 293 294 296 296 297 298 299 301 304 307 311 312 314 316 317 317 319 321 322 324 329 331 332 332 332 331 330 330 331 333 332 330 331 330 325 324 332 332 328 332 330
291 290 291 291 291 289 287 286 286 285 283 283 283 283 284 284 284 283 282 281 281 282 281 282 284 286 287 287 287 286 283 281 281 282 283 284 285 286 289 291 291 291 291 289 288 291 294 295 295 295 296 297 299 302 306 309 311 313 314 316 318 320 321 325 331 334 333 332 330 330 330 329 329 332 333 330 329 331 330 330 336 336 334 339 343
292 292 292 291 290 289 287 286 286 284 283 284 285 285 286 286 285 284 282 280 280 280 280 281 284 286 287 287 287 284 282 281 280 279 280 281 283 285 289 291 292 292 291 289 288 292 294 294 293 293 292 293 295 298 301 304 306 308 310 313 315 317 321 328 334 335 333 331 329 327 327 328 327 328 330 330 330 332 332 332 334 336 337 341 348
293 293 293 292 291 289 287 286 286 284 284 285 285 286 287 287 285 284 283 281 280 281 281 281 284 285 285 286 286 284 282 282 281 279 279 280 284 287 289 291 291 291 291 289 289 292 295 295 294 293 292 293 295 296 296 299 303 306 307 308 311 315 320 326 331 332 331 329 327 325 324 325 325 325 327 329 329 329 331 332 332 334 339 344 348
296 296 294 292 290 289 288 287 286 285 285 285 285 286 287 287 286 285 284 282 282 282 282 282 284 284 284 284 284 283 283 282 281 280 279 281 284 288 290 290 290 291 291 290 289 292 295 296 295 294 294 293 292 293 294 297 302 304 303 303 307 312 316 320 326 330 331 329 326 325 323 321 322 322 324 327 328 328 330 334 334 333 338 344 347
299 297 294 291 289 288 287 288 287 286 286 286 286 286 286 286 286 286 285 284 284 283 282 283 283 282 283 283 282 282 283 282 281 281 281 282 285 289 291 291 291 291 291 290 289 292 295 296 296 296 295 292 290 291 292 295 300 300 299 301 305 307 311 317 324 328 328 326 326 325 322 319 319 320 321 324 328 328 328 331 333 334 337 343 346
300 298 294 291 289 287 287 288 287 287 287 287 287 286 286 286 287 286 286 286 285 283 282 283 282 282 282 283 282 283 284 283 282 283 283 283 286 290 292 292 292 291 291 291 290 292 295 297 297 298 298 294 292 291 291 294 298 298 297 300 302 302 307 317 323 324 324 325 326 326 323 319 318 318 318 320 324 327 326 327 329 332 335 338 341
301 298 294 292 289 288 288 288 288 287 288 288 288 287 287 286 286 286 286 286 286 285 284 283 283 282 282 283 284 286 285 284 283 284 284 284 286 289 292 293 292 290 290 290 290 293 297 298 299 300 300 298 295 292 291 292 294 295 297 299 297 296 304 314 317 317 321 325 325 325 324 322 319 317 318 318 320 324 325 325 327 330 333 334 336
301 298 294 291 290 289 289 290 289 288 288 288 287 287 287 286 285 286 287 287 286 286 286 285 284 283 283 284 285 287 287 287 285 284 283 283 285 287 291 293 292 290 289 289 291 294 298 300 301 300 301 301 298 292 288 288 289 292 295 296 297 300 307 311 311 313 320 325 325 324 324 322 319 318 319 319 321 324 325 327 330 331 331 332 331
301 298 295 292 291 291 291 291 290 289 289 289 287 287 287 287 286 287 287 287 287 287 288 287 286 285 284 284 285 287 288 288 287 285 284 285 286 288 290 291 291 289 288 289 291 295 298 301 303 302 302 303 301 294 287 284 286 289 294 299 304 308 307 303 304 311 319 323 323 324 323 320 319 320 321 322 323 325 325 327 331 333 331 331 329